Home > Weather > Wuhan > Past weeks

Flag for China Past Weather in Wuhan, Hubei, China — Yesterday and Last 2 Weeks

Now
99 °F

Scattered clouds.


Feels Like: 125 °F
Forecast: 74 / 84 °F
Wind: 3 mph from West

Location: Wuhan Airport

Current Time: Aug 25, 2016 at 4:18:06 PM

Latest Report: Aug 25, 2016 at 3:00 PM


Visibility: 3 mi

Pressure: 29.56 "Hg

Humidity: 60%

Dew Point: 82 °F

Location of WuhanLocation

Past Weather in Wuhan — Graph

°F

Wuhan Temperature Yesterday

Maximum temperature yesterday: 95 °F (at 3:00 PM)
Minimum temperature yesterday: 84 °F (at 1:00 AM)
Average temperature yesterday: 89 °F

High & Low Weather Summary for the Past Weeks

 TemperatureHumidityPressure
High100 °F (Aug 19, 3:00 PM)100% (Aug 12, 2:00 AM)29.77 "Hg (Aug 12, 2:00 AM)
Low81 °F (Aug 20, 11:00 PM)53% (Aug 14, 3:00 PM)29.47 "Hg (Aug 17, 4:00 PM)
Average90 °F79%29.61 "Hg
* Reported Aug 10 3:00 PM — Aug 25 3:00 PM, Wuhan, Weather by CustomWeather, © 2016

Note: Actual official high and low records may vary slightly from our data, if they occured in-between our weather recording intervals... More about our weather records

Advertising

Wuhan Weather History for the Previous 24 Hours

Scroll right to see more
 ConditionsComfort  
Time TempWeatherWind HumidityBarometerVisibility
3:00 PM
Thu, Aug 25
99 °FScattered clouds.3 mph60%29.56 "Hg3 mi
2:00 PM97 °FScattered clouds.3 mph63%29.59 "Hg3 mi
1:00 PM97 °FScattered clouds.3 mph63%29.62 "Hg2 mi
12:00 PM93 °FFog.3 mph80%29.65 "Hg2 mi
11:00 AM93 °FFog.3 mph80%29.65 "Hg2 mi
10:00 AM93 °FFog.3 mph75%29.65 "Hg2 mi
9:00 AM90 °FFog.6 mph84%29.65 "Hg2 mi
8:00 AM88 °FFog.6 mph89%29.65 "Hg2 mi
7:00 AM86 °FFog.6 mph94%29.65 "Hg2 mi
6:00 AM86 °FFog.6 mph89%29.62 "Hg2 mi
5:00 AM86 °FFog.3 mph89%29.62 "Hg3 mi
4:00 AM88 °FFog.6 mph84%29.59 "Hg3 mi
3:00 AM88 °FFog.6 mph89%29.59 "Hg2 mi
2:00 AM88 °FFog.6 mph89%29.59 "Hg2 mi
1:00 AM90 °FFog.8 mph84%29.62 "Hg2 mi
12:00 AM90 °FClear.6 mph79%29.62 "Hg4 mi
11:00 PM
Wed, Aug 24
88 °FClear.3 mph84%29.62 "Hg4 mi
10:00 PM88 °FFog.1 mph89%29.62 "Hg3 mi
9:00 PM90 °FFog.1 mph89%29.62 "Hg3 mi
8:00 PM90 °FFog.1 mph84%29.59 "Hg3 mi
7:00 PM91 °FHaze.No wind80%29.59 "Hg3 mi
6:00 PM95 °FHaze.1 mph67%29.59 "Hg3 mi
5:00 PM95 °FHaze.1 mph67%29.59 "Hg3 mi
4:00 PM95 °FHaze.3 mph63%29.59 "Hg3 mi
Weather by CustomWeather, © 2016

See weather overviewHow to use our weather pages